Regional Weather Roundup
Issued by NWS

Home | Current Version | Previous Version | Text Only | Print | Product List | Glossary On
Versions: 1 2 3 4 5 6 7 8 9 10 11 12 13 14 15 16 17 18 19 20 21 22 23 24 25 26 27 28 29 30 31 32 33 34 35 36 37 38 39 40 41 42 43 44 45 46 47 48 49 50
000
ASUS43 KMKX 271411
RWRWI

WISCONSIN REGIONAL WEATHER ROUNDUP
NATIONAL WEATHER SERVICE MILWAUKEE/SULLIVAN WI
900 AM CDT SAT AUG 27 2016

NOTE: "FAIR" INDICATES FEW OR NO CLOUDS BELOW 12,000 FEET WITH NO
SIGNIFICANT WEATHER AND/OR OBSTRUCTIONS TO VISIBILITY.

WIZ001-002-006>008-014>016-023>028-271500-
NORTHWEST WISCONSIN

CITY           SKY/WX    TMP DP  RH WIND       PRES   REMARKS
SUPERIOR ARPT  CLOUDY    62  58  88 CALM      30.10S
ASHLAND        MOSUNNY   61  56  83 CALM      30.12S
HAYWARD        CLOUDY    61  55  81 CALM      30.12S
SIREN          CLOUDY    60  56  85 CALM      30.11R
CUMBERLAND     CLOUDY    59  55  88 SE3       30.11F
RICE LAKE      CLOUDY    61  57  86 E5        30.12F
CHETEK         NOT AVBL
LADYSMITH      MOSUNNY   63  57  80 SE6       30.15S
EAU CLAIRE     CLOUDY    64  57  78 SE6       30.09S
MENOMONIE      CLOUDY    64  59  86 E5        30.10S
NEW RICHMOND   LGT RAIN  61  59  95 E6        30.09F
OSCEOLA        CLOUDY    62  62 100 NE3       30.12S
$$

WIZ003>005-009-010-017-018-271500-
NORTH CENTRAL WISCONSIN

CITY           SKY/WX    TMP DP  RH WIND       PRES   REMARKS
MANITOWISH WTR NOT AVBL
ARBOR VITAE    CLOUDY    62  57  82 SE5       30.15R
WOODRUFF       CLOUDY    62  57  82 SE5       30.15R
RHINELANDER    MOSUNNY   62  58  86 S7        30.15F
EAGLE RIVER    CLOUDY    61  57  85 S5        30.14F
LAND O LAKES   CLOUDY    60  56  85 CALM      30.15F
PHILLIPS       MOSUNNY   60  56  85 CALM      30.13S
TOMAHAWK       MOSUNNY   61  56  84 S3        30.14F
MEDFORD        CLOUDY    61  61 100 CALM      30.13S
MERRILL        MOSUNNY   61  59  93 S6        30.14S
$$

WIZ029-030-035-036-043>047-271500-
CENTRAL WISCONSIN

CITY           SKY/WX    TMP DP  RH WIND       PRES   REMARKS
WAUSAU         CLOUDY    60  58  92 SE8       30.12F
MOSINEE        CLOUDY    59  59 100 E3        30.14S
MARSHFIELD     MOSUNNY   62  58  86 E8        30.11F
STEVENS POINT  RAIN      59  57  93 E6        30.14S
WAUPACA        LGT RAIN  64  64  98 E7        30.14R
WAUTOMA        LGT RAIN  62  60  93 E7        30.12F
WISC RAPIDS    CLOUDY    62  59  90 E7        30.13S
CAMP DOUGLAS   LGT RAIN  61  61 100 E5        30.10S
$$

WIZ011>013-019>022-031-037>040-048>050-271500-
NORTHEAST WISCONSIN

CITY           SKY/WX    TMP DP  RH WIND       PRES   REMARKS
ANTIGO         CLOUDY    59  57  94 CALM      30.15F
SHAWANO        LGT RAIN  63  60  88 E5        30.14S
OCONTO         NOT AVBL
STURGEON BAY   LGT RAIN  62  60  93 SE8       30.15S
GREEN BAY      LGT RAIN  62  62 100 E3        30.14S
MANITOWOC      HVY RAIN  60  58  92 MISG      30.15F FOG
APPLETON       LGT RAIN  61  61 100 E6        30.12F
CLINTONVILLE   LGT RAIN  61  59  94 E5        30.14S
OSHKOSH        LGT RAIN  62  60  93 SE7       30.12F
$$

WIZ032>034-041-042-053>061-271500-
SOUTHWEST WISCONSIN

CITY           SKY/WX    TMP DP  RH WIND       PRES   REMARKS
LA CROSSE      CLOUDY    65  62  90 SE5       30.07S
SPARTA         CLOUDY    61  60  95 E7        30.09F
VIROQUA        CLOUDY    61  61 100 E7        30.09R
BOSCOBEL       CLOUDY    65  63  93 VRB5      30.07S
PRAIRIE DU CHI CLOUDY    63  62  96 E6        30.05S
PLATTEVILLE    CLOUDY    63  63 100 E10       30.06S
$$

WIZ056-057-062-063-064-067-068-271500-
SOUTH CENTRAL WISCONSIN

CITY           SKY/WX    TMP DP  RH WIND       PRES   REMARKS
REEDSBURG      NOT AVBL
BARABOO/DELLS  CLOUDY    61  59  94 E8        30.09F
LONE ROCK      RAIN      64  61  90 E7        30.08S FOG
MINERAL POINT  LGT RAIN  63  63 100 E10       30.06F
MADISON        DRIZZLE   62  61  96 E6        30.08F FOG
MIDDLETON      CLOUDY    63  63 100 E6        30.09F
WATERTOWN      CLOUDY    62  62 100 NE7       30.09F
MONROE         CLOUDY    63  63 100 NE6       30.07F FOG
JANESVILLE     CLOUDY    66  66 100 E7        30.06F
$$

WIZ051-052-058>065-066-070>072-271500-
SOUTHEAST WISCONSIN

CITY           SKY/WX    TMP DP  RH WIND       PRES   REMARKS
MILWAUKEE      LGT RAIN  66  63  90 NE12      30.08F
WAUKESHA       LGT RAIN  61  59  94 NE6       30.11F
MILWAUKEE/TIMM LGT RAIN  63  57  82 NE6       30.11F
RACINE         LGT RAIN  69  66  90 N8        30.08F
BURLINGTON     CLOUDY    65  64  94 NE3       30.08F
KENOSHA        CLOUDY    70  68  93 N3        30.07F FOG
FOND DU LAC    LGT RAIN  62  60  93 MISG      30.12F
SHEBOYGAN      LGT RAIN  61  59  93 E8        30.13F
WEST BEND      RAIN      61  59  94 NE7       30.11F
JUNEAU         CLOUDY    61  60  96 NE8       30.11F
$$

LSZ147-162-271500-
LAKE SUPERIOR

STATION/POSITION TIME  TEMP    WIND        PRES    WAVE
                       AIR SEA DIR/SP/G            HT/PER
                 (UTC) (F)     (DEG/KT/KT) (MB)    (FT/S)
W MID LAKE BUOY  1350   66 67  140/  8/  8 1019.3F   1/ 3
DEVILS ISLAND    1400   66     160/  2/  5 1019.6F
PORT WING        1300   62     130/  1/  3 1019.6S
SAXON HARBOR     1300   62     180/  4/  8 1019.3
$$

LMZ867-665-643>646-271500-
LAKE MICHIGAN

STATION/POSITION TIME  TEMP    WIND        PRES    WAVE
                       AIR SEA DIR/SP/G            HT/PER
                 (UTC) (F)     (DEG/KT/KT) (MB)    (FT/S)
CHAMBERS ISLAND  1300   63      CALM  /  1 1020.7S
S GREEN BAY BUOY 1330   65 71  110/  8/  8 1020.1R
N MID LAKE BUOY  1350   67 69  160/ 10/ 14 1020.5R   1/ 3
NORTHPORT PIER   1300   65      40/  2/  3 1020.7
SISTER BAY       1307   64        CALM       N/A
KEWAUNEE LAKESHO 1300   61      70/  2/  4 1020.3R
SHEBOYGAN LAKESH 1400   60      50/  7/  8 1019.8F
PORT WASHINGTON  1340   61      50/  9/ 10 1020.3F
ATWATER BUOY     1400   64      30/ 12/ 16   N/A
MILWAUKEE LAKESH 1310   60      40/ 12/ 14   N/A
S MID LAKE BUOY  1350   72 74  140/ 10/ 14 1017.5F   2/ 4
KENOSHA   LAKESH 1400   70     210/  3/  8 1017.6F
$$

TC  - TEMPERATURE IN CELSIUS
VSB - VISIBILITY IN STATUTE MILES
WCI - WIND CHILL INDEX
HX  - HEAT INDEX





USA.gov is the U.S. government's official web portal to all federal, state and local government web resources and services.